Location: ????????
(55.6189°N, 38.3031°E)
Time: 07:20:54
(UTC+00:00)

ADEOS II - Pass Details

Date: 15 November 2019
Orbit: 799 x 801 km, 98.5° (Epoch: 14 December)

Event Time Altitude Azimuth Distance (km) Brightness Sun altitude
Rises 00:16:11 0° 16° (NNE) 3,326 5.8 -39.1°
Reaches altitude 10° 00:18:32 10° 18° (NNE) 2,391 5.0 -38.8°
Enters shadow 00:19:37 17° 19° (NNE) 1,969 4.5 -38.7°
